Location: Unspecified
(0.0000°N, 0.0000°E)
Time: 01:19:37
(UTC+01:00)

IUS-9 SRM-1 - Visible Passes

Search period start: 26 January 2015 00:00
Search period end: 05 February 2015 00:00
Orbit: 264 x 20497 km, 26.5° (Epoch: 25 January)

Date Brightness Start Highest point End Pass type
(mag) Time Alt. Az. Time Alt. Az. Time Alt. Az.
26 Jan 7.8 18:14:40 10° W 22:39:40 59° N 22:46:59 58° NNE visible
27 Jan 7.7 18:14:26 10° W 22:39:40 60° N 22:46:44 59° NNE visible
28 Jan 7.7 18:14:10 10° W 22:39:35 60° NNE 22:46:27 59° NNE visible
29 Jan 7.7 18:13:50 10° W 22:39:24 61° NNE 22:46:08 60° NNE visible
30 Jan 7.6 18:13:29 10° W 22:39:09 62° NNE 22:45:46 61° NNE visible
31 Jan 7.6 18:13:04 10° WNW 22:38:49 63° NNE 22:45:22 62° NE visible
01 Feb 7.6 18:12:37 10° WNW 22:38:24 64° NNE 22:44:55 63° NE visible
02 Feb 7.5 18:12:07 10° WNW 22:37:54 65° NNE 22:44:27 63° NE visible
03 Feb 7.5 18:11:35 10° WNW 22:37:20 66° NNE 22:43:56 64° NE visible
04 Feb 7.4 18:10:59 10° WNW 22:36:41 67° NNE 22:43:22 65° NE visible
